Regional Weather Roundup
Issued by NWS

Home | Current Version | Previous Version | Graphics & Text | Print | Product List | Glossary On
Versions: 1 2 3 4 5 6 7 8 9 10 11 12 13 14 15 16 17 18 19 20 21 22 23 24 25 26 27 28 29 30 31 32 33 34 35 36 37 38 39 40 41 42 43 44 45 46 47 48 49 50
000
ASUS43 KLSX 270907
RWRMO

WEATHER SUMMARY FOR MISSOURI
NATIONAL WEATHER SERVICE SPRINGFIELD MO
300 AM CST SAT DEC 27 2014

NOTE: "FAIR" INDICATES FEW OR NO CLOUDS BELOW 12,000 FEET WITH NO
       SIGNIFICANT WEATHER AND/OR OBSTRUCTIONS TO VISIBILITY.
       CURRENT SKY AND/OR WEATHER CONDITIONS ARE NOT AVAILABLE FOR
       CHILLICOTHE AND FARMINGTON.

MOZ001>031-035>038-043-044-053-054-271000-
...NORTHERN AND WESTERN MISSOURI...

CITY           SKY/WX    TMP DP  RH WIND       PRES   REMARKS
KANSAS CTY INT CLOUDY    34  32  92 W9        30.06F WCI  27
KANSAS C DTWN  CLOUDY    37  31  78 W8        30.09R
LEE`S SUMMIT   CLOUDY    36  32  85 W16G22    30.08R WCI  26
ST JOSEPH      CLOUDY    34  32  92 W10       30.08S WCI  26
CHILLICOTHE      N/A     38  35  89 W10       30.05R
KIRKSVILLE     CLOUDY    43  43 100 W14G25    29.97R FOG

$$
MOZ066>068-077>081-088>096-101>105-271000-
...SOUTHWEST MISSOURI...

CITY           SKY/WX    TMP DP  RH WIND       PRES   REMARKS
SPRINGFIELD    CLOUDY    50  48  93 S5        30.03R FOG
JOPLIN         CLOUDY    40  38  93 NW8       30.10R

$$
MOZ032>034-039>042-045>050-055>058-069>072-271000-
...CENTRAL MISSOURI...

CITY           SKY/WX    TMP DP  RH WIND       PRES   REMARKS
COLUMBIA       LGT RAIN  50  48  93 S10       30.01R
JEFFERSON CITY CLOUDY    51  47  86 SE5       30.02R
ROLLA          CLOUDY    48  46  93 S10       30.02R
SEDALIA        CLOUDY    43  41  93 W10       30.05R FOG
WHITEMAN AFB   CLOUDY    40  39  95 W15       30.04S
WARRENSBURG    CLOUDY    37  34  87 W13G22    30.06R WCI  29
OSAGE BEACH    CLOUDY    50  46  87 S8        30.03R

$$
MOZ051-052-059>065-271000-
...EAST CENTRAL MISSOURI...

CITY           SKY/WX    TMP DP  RH WIND       PRES   REMARKS
ST LOUIS INTL  CLOUDY    50  46  87 S6        30.05S
SPIRIT OF STL  CLOUDY    49  46  90 CALM      30.04S
ST CHARLES     MOCLDY    47  46  97 S8        30.04F

$$
MOZ072>076-082>087-097>100-106>115-271000-
...SOUTH CENTRAL AND SOUTHEAST MISSOURI...

CITY           SKY/WX    TMP DP  RH WIND       PRES   REMARKS
CAPE GIRARDEAU LGT RAIN  46  45  96 S3        30.14R FOG
FARMINGTON     CLOUDY    46  45  93 SE13      30.09F
POPLAR BLUFF   CLOUDY    46  44  93 SE3       30.12S FOG
WEST PLAINS    FOG       47  46  97 S5        30.07S VSB 1/2

$$


USA.gov is the U.S. government's official web portal to all federal, state and local government web resources and services.